Theta_e
351 352 349 349 349 349 349 348 347 348 347 346 345 345 344 343 344 345 345 347 346 344 343 344 344 344 336 334 332 332 333 335 330 330 335 330 332 332 331 332 330 330 330
352 352 352 350 350 350 349 349 349 349 348 348 345 345 343 344 346 347 349 346 346 344 345 345 343 334 331 327 326 329 331 331 330 336 330 333 336 336 331 326 322 321 323
350 350 351 351 349 350 350 348 349 346 347 348 347 346 346 347 347 348 349 347 347 345 340 338 334 328 321 328 328 329 327 336 333 332 333 334 333 332 331 326 319 319 318
348 348 349 349 349 347 348 348 348 346 346 347 348 348 347 349 350 347 346 343 344 338 337 338 327 321 326 325 327 324 325 329 335 330 329 329 330 332 331 329 323 322 320
346 347 348 345 345 345 346 347 348 347 347 347 349 349 348 350 349 343 339 339 337 332 338 334 323 324 326 327 327 322 323 324 327 333 333 327 326 324 330 327 327 327 323
346 346 346 344 345 345 346 347 347 347 346 346 347 348 348 349 346 342 339 338 334 335 341 333 324 328 328 328 324 322 323 325 327 330 328 330 329 329 329 329 329 327 327
346 346 347 346 345 346 346 347 347 347 346 346 346 346 347 348 342 335 336 334 328 329 330 331 323 326 330 326 322 324 327 327 327 326 332 329 329 330 331 330 329 329 328
345 346 346 345 346 347 347 347 349 347 345 343 342 342 343 343 331 328 330 328 327 328 332 329 323 325 328 326 322 323 325 327 327 327 327 331 329 329 329 331 331 329 328
345 346 346 345 346 347 347 348 350 348 340 336 338 340 341 339 330 327 330 327 323 328 329 321 323 323 324 324 324 325 322 322 327 329 329 330 332 331 331 331 330 330 330
346 347 347 345 346 347 348 347 347 347 334 333 334 334 335 329 327 326 328 327 318 327 322 320 325 324 322 323 325 325 324 320 321 324 323 324 330 328 327 327 329 329 329
346 347 348 346 345 346 348 348 348 347 343 332 330 331 330 326 327 327 319 318 318 317 319 321 324 323 322 322 320 319 318 317 322 323 324 325 326 327 327 325 325 328 328
344 347 348 348 346 347 347 348 350 349 347 337 329 329 329 327 324 323 341 319 317 321 318 321 322 320 322 323 322 322 325 323 322 325 326 325 324 323 322 321 322 323 325
345 346 348 348 346 346 347 348 348 348 348 348 341 331 330 330 329 329 335 326 319 324 323 324 320 320 320 321 322 320 322 324 325 324 325 324 325 324 322 322 322 326 323
342 343 346 342 342 342 344 345 347 349 349 348 348 344 335 334 341 341 345 327 324 323 324 320 319 320 321 321 321 320 322 323 323 324 326 327 324 323 322 320 320 321 322
342 341 339 338 339 341 342 343 344 346 347 348 348 349 347 346 346 348 344 330 328 328 328 324 321 323 322 322 322 324 326 325 323 322 324 326 325 324 323 321 321 320 322
337 337 337 338 338 339 340 341 343 344 345 346 348 349 349 349 347 348 346 341 334 330 329 326 331 328 325 323 325 328 328 325 325 324 326 327 326 325 325 324 321 321 321
337 337 338 338 339 339 340 340 340 341 342 343 345 347 347 347 348 347 346 338 337 333 332 329 335 329 328 324 326 327 328 328 326 327 328 328 326 325 326 325 323 322 322
340 338 337 337 337 337 338 338 338 339 339 341 343 345 346 347 347 346 343 340 338 335 331 331 332 333 333 329 328 330 329 331 330 330 329 329 327 326 325 324 323 322 321
335 337 338 337 334 330 329 330 331 332 336 340 343 344 345 346 347 346 343 337 338 334 332 329 332 332 332 331 328 326 326 329 329 329 328 328 328 325 324 324 321 320 318
335 336 330 327 327 328 328 329 328 330 333 338 342 346 347 347 346 346 343 341 335 334 334 335 333 333 332 330 328 326 327 329 329 329 327 328 325 325 324 321 317 316 316
333 329 329 329 331 332 332 331 331 332 335 338 342 349 348 346 345 344 341 337 332 333 335 334 335 333 328 327 327 326 326 326 329 327 328 326 325 324 320 317 314 313 314
331 331 333 332 331 329 330 330 330 333 336 341 344 347 347 345 344 343 340 336 335 335 336 335 334 329 326 326 327 326 327 327 325 328 326 325 323 321 319 317 313 313 317
332 333 333 332 332 330 329 329 332 337 340 340 344 344 343 342 341 341 340 336 336 336 336 334 329 327 325 325 327 326 325 322 326 325 323 322 320 321 319 316 313 316 316
331 333 331 331 333 334 333 335 340 341 342 344 343 339 338 338 338 339 337 334 330 329 328 327 325 325 325 326 328 324 323 324 324 322 320 319 319 318 316 314 316 315 314
331 331 331 330 336 337 342 344 344 344 342 336 336 335 336 336 337 336 333 329 328 329 329 327 325 327 326 326 326 324 324 323 321 320 318 317 316 314 314 315 315 312 311
337 335 335 333 334 336 340 343 343 341 339 339 337 335 334 334 335 333 329 327 328 326 325 325 325 324 326 326 324 323 322 320 319 317 315 315 312 313 313 312 311 309 310
Wind_Speed
26 25 26 26 27 27 26 26 26 25 22 21 21 21 21 20 19 18 17 17 16 15 14 14 15 15 14 14 15 12 11 9 11 9 6 4 3 5 1 2 3 5 6
25 27 28 28 29 29 28 28 28 24 26 25 23 23 20 18 17 16 16 16 17 16 16 15 14 13 14 13 10 8 8 9 8 5 6 3 0 1 2 3 5 5 6
28 28 29 30 30 31 30 28 26 24 25 26 26 23 20 20 18 19 19 17 17 15 13 12 13 15 10 5 5 8 7 4 6 4 2 2 1 6 1 2 7 9 10
27 27 28 32 32 30 29 29 25 24 26 27 27 26 24 20 17 19 18 17 14 14 13 12 13 10 7 6 6 7 5 5 4 6 4 4 4 3 3 4 4 7 7
31 30 30 32 33 31 30 29 27 26 27 28 28 26 24 21 18 17 16 15 14 13 12 11 10 7 8 7 7 6 6 6 6 4 4 6 6 6 3 8 8 7 6
32 31 31 32 33 32 30 31 30 28 29 28 28 28 26 23 21 19 16 16 16 17 15 12 10 8 8 7 7 6 5 5 5 5 5 4 4 4 6 10 11 12 9
33 33 33 35 37 37 34 33 33 32 31 31 30 30 28 24 21 19 18 17 17 16 14 12 11 11 9 8 6 5 3 3 3 4 6 8 8 8 8 9 12 14 14
36 36 38 40 39 38 36 35 34 34 34 34 33 31 29 27 24 23 20 18 18 15 13 13 12 12 11 9 8 6 7 8 7 8 9 8 10 11 12 11 12 16 16
41 42 41 42 42 39 36 37 37 36 37 38 35 34 32 31 30 26 23 20 19 18 16 15 12 12 12 11 11 11 11 11 11 13 13 11 11 13 15 17 16 14 17
37 39 43 47 44 40 37 36 37 38 39 40 37 36 35 33 30 26 24 21 19 19 18 16 15 14 12 12 14 13 14 13 12 13 15 15 13 14 15 16 17 20 18
38 41 42 48 46 43 43 41 39 38 40 41 42 41 39 35 31 29 24 21 22 18 20 18 16 16 14 13 13 13 14 13 13 12 11 12 13 13 15 16 19 21 20
36 35 34 36 40 46 45 46 44 42 40 42 44 45 44 39 33 34 28 19 19 21 19 19 18 17 16 15 14 14 14 15 12 10 10 11 13 14 17 18 19 20 20
25 29 28 31 34 38 44 46 47 46 44 44 46 47 48 45 41 42 31 17 14 16 21 22 21 19 18 17 16 14 15 14 13 12 13 15 16 17 18 19 21 20 23
27 29 28 31 31 31 34 39 45 45 43 46 48 50 49 47 45 41 28 26 17 14 24 24 23 21 19 18 16 15 16 15 16 16 16 18 18 18 19 21 23 24 24
23 31 31 30 31 32 32 33 34 38 40 44 47 48 43 43 44 42 41 33 36 36 28 27 26 23 21 19 18 17 18 18 18 18 18 20 19 20 22 22 23 22 22
29 32 30 32 32 29 28 28 28 29 31 35 37 36 37 41 40 40 42 45 26 13 43 35 31 26 25 20 18 19 21 21 21 20 19 21 23 24 25 25 25 25 27
31 32 35 32 27 23 21 20 19 18 21 23 26 29 31 32 34 35 36 42 34 25 46 40 35 32 27 22 20 22 23 23 22 23 24 26 26 26 27 27 27 27 29
20 21 19 19 14 10 7 7 6 6 10 14 18 23 23 25 26 28 34 42 33 29 36 38 35 31 28 24 21 22 22 25 26 24 28 27 26 25 25 29 27 28 28
10 7 10 12 15 14 10 6 3 0 5 10 14 17 17 18 22 26 31 37 29 28 36 37 30 26 25 26 23 25 25 29 27 28 27 24 22 23 24 26 26 23 24
22 28 27 25 22 19 16 12 9 5 1 5 8 9 12 15 15 23 30 36 27 30 34 34 25 22 21 23 28 29 35 38 25 26 25 21 22 23 23 22 21 21 21
32 29 25 25 22 17 12 7 2 2 7 8 9 12 13 14 16 25 32 34 25 29 34 32 29 22 18 22 22 29 27 25 21 25 21 23 22 22 20 19 20 22 21
25 23 22 19 16 12 2 4 8 9 10 13 11 14 15 18 21 26 28 24 22 21 22 23 21 16 19 27 23 21 17 18 19 20 22 22 20 20 19 19 21 19 17
22 15 11 7 5 3 1 4 10 14 11 10 12 15 15 19 19 22 24 18 16 20 20 19 19 22 21 24 20 19 15 15 16 19 19 21 19 19 20 21 19 16 17
15 14 11 9 5 2 2 7 10 9 11 10 12 14 18 19 19 20 19 14 13 12 13 12 18 19 19 16 18 13 12 12 15 20 20 20 21 20 19 16 15 16 19
14 11 8 7 5 2 4 7 7 9 6 12 16 16 15 16 15 19 18 18 16 14 16 16 14 12 13 13 10 10 11 16 20 19 20 19 17 14 11 12 14 17 16
11 8 6 5 5 4 4 4 7 9 15 16 17 15 13 14 17 18 20 18 16 12 13 12 10 9 11 11 11 13 17 19 18 17 16 12 11 8 9 11 12 11 12
Wind_Direction
207 209 210 213 217 220 220 217 218 221 216 218 225 230 233 236 242 248 252 251 259 267 269 275 280 280 280 283 289 290 289 296 303 317 334 330 268 86 20 289 315 308 302
207 211 213 215 220 223 223 222 224 226 224 226 231 235 238 245 252 257 263 256 255 260 269 269 271 275 284 287 284 283 288 291 304 320 355 347 235 294 36 64 33 7 347
210 212 213 216 220 224 225 225 222 222 223 227 233 237 240 243 244 246 250 249 251 256 256 257 273 287 283 259 280 295 292 275 300 318 326 323 330 338 253 3 20 19 17
216 215 214 219 221 226 228 230 225 221 223 227 233 236 238 237 242 249 253 253 244 249 248 261 284 275 244 257 278 289 281 276 280 306 291 293 304 328 301 309 330 360 10
217 217 216 221 224 225 229 229 226 225 226 228 232 235 237 239 245 246 240 235 240 242 245 260 272 260 238 258 279 270 273 278 281 275 269 291 295 306 288 309 312 326 335
217 218 220 221 222 224 225 229 227 227 229 230 231 233 238 240 242 238 235 240 243 241 244 259 269 255 251 264 266 249 245 262 264 265 275 268 287 297 297 302 314 315 314
218 216 214 218 223 224 222 225 227 227 230 231 231 232 234 235 238 236 230 235 238 236 243 258 263 261 258 266 237 221 238 251 234 245 257 274 286 295 298 293 302 304 304
215 217 216 218 221 224 225 226 225 226 229 230 229 229 229 229 227 227 227 228 231 238 242 252 245 241 247 243 229 237 251 257 249 258 266 267 282 286 292 284 287 302 301
213 215 217 219 220 221 218 221 223 223 225 228 229 231 230 228 227 229 230 231 228 229 237 241 241 244 248 242 240 247 250 252 249 253 262 273 271 282 290 290 289 284 294
213 212 214 219 218 219 216 220 222 224 223 227 228 231 231 228 227 228 235 241 235 233 237 235 239 246 245 243 245 249 248 256 255 257 270 278 281 286 288 289 287 290 281
208 209 210 219 220 220 221 221 224 226 228 228 228 230 231 228 230 232 221 236 241 230 241 243 245 251 250 249 248 251 253 251 257 264 275 283 286 290 293 291 289 282 282
211 208 209 212 216 221 225 226 228 229 230 231 231 231 233 230 221 241 242 222 242 245 243 247 251 253 258 259 255 256 255 258 255 260 275 288 290 294 299 297 293 286 283
201 202 202 209 216 221 225 228 231 232 235 233 236 236 236 234 231 230 225 230 246 249 257 252 252 251 251 254 256 252 252 252 259 267 280 287 287 288 296 299 295 288 292
203 200 202 216 222 224 226 229 234 235 235 238 240 240 240 240 236 236 226 207 230 269 260 256 254 253 250 248 251 248 245 250 260 271 278 283 283 287 295 300 303 301 296
198 204 209 215 221 225 230 234 238 240 241 244 244 246 244 244 243 236 222 206 220 236 249 256 253 250 247 245 249 248 252 259 263 271 282 284 286 289 292 294 303 296 298
208 206 211 218 222 227 234 239 244 244 246 248 252 251 251 251 249 243 225 230 212 304 245 241 248 248 250 252 251 251 253 255 264 271 279 283 287 288 290 291 294 291 294
208 209 213 216 221 228 236 248 258 258 256 258 252 250 252 255 254 250 236 216 215 249 238 233 238 244 248 250 251 251 253 260 264 276 282 281 285 288 287 287 291 292 294
222 219 213 214 224 224 220 219 236 259 263 261 255 253 252 252 252 246 231 212 220 254 223 230 240 243 245 246 248 251 261 277 280 282 285 282 285 285 288 291 292 296 293
228 196 181 165 136 126 123 121 112 109 265 259 252 254 251 244 246 239 229 210 235 231 215 229 242 240 239 243 241 248 263 276 277 290 284 283 283 289 287 290 297 299 299
142 138 134 132 122 116 110 99 98 80 306 246 235 228 241 242 238 240 223 219 246 226 224 235 244 250 252 250 248 274 269 278 285 285 279 277 285 285 289 293 295 296 294
127 123 119 124 116 109 100 101 76 324 251 228 222 215 211 198 208 222 221 221 229 229 232 235 243 250 259 279 265 288 272 271 278 271 274 282 287 289 290 293 293 291 295
109 112 120 124 126 122 125 276 253 241 218 202 208 207 201 206 212 218 222 241 257 232 229 241 245 235 244 266 266 273 273 267 265 268 279 284 287 287 292 297 294 293 294
104 102 104 118 141 150 213 235 230 230 201 204 206 194 197 209 214 222 233 242 242 240 238 228 225 243 248 276 266 271 261 261 263 274 283 286 288 291 295 291 288 290 301
91 91 81 66 53 68 225 243 234 225 216 199 194 193 200 208 213 224 229 232 214 211 201 231 253 262 266 259 263 249 263 273 276 283 288 293 294 294 292 285 288 298 305
79 81 78 87 100 121 220 229 219 214 183 172 191 193 197 208 217 217 213 199 201 209 226 238 239 243 250 258 248 264 271 272 278 286 290 293 294 291 280 284 296 305 307
62 63 66 97 118 141 149 137 149 179 190 195 198 195 203 207 211 218 211 211 218 233 225 228 220 235 242 244 250 260 265 270 277 284 285 282 272 254 264 288 298 303 313